Wind_Speed
2 3 2 2 1 1 1 3 1 2 2 1 2 1 4 6 3 4 7 6 2 2 3 5 5 6 6 6 8 7 4 1 3 4 3 4 9 24 28 25 27 30 30 29 27 25 24 24 24 24 23 22 21 22 24 26 27 26 25 25 26 26 26 25 24 24 23 23 24 24 24 24 25 27 27 26 26 25 23 22 23 22 21 21 21 20 19 18 18 18 18 18 18 19 19 19 20
2 2 2 1 2 2 1 3 2 3 3 2 3 3 5 3 1 5 7 7 2 3 4 9 10 11 11 8 7 6 4 5 1 2 1 3 12 21 24 26 31 31 31 29 27 26 24 24 24 24 23 22 22 22 24 26 27 26 25 25 25 26 25 25 24 23 23 23 24 24 24 24 25 27 27 27 27 26 24 22 22 22 21 21 20 19 19 18 17 17 17 17 17 17 17 17 17
3 2 1 1 3 3 1 3 2 0 4 1 5 4 4 2 5 8 9 9 4 7 5 6 7 6 6 5 4 5 1 4 1 2 1 9 10 17 27 30 32 28 29 28 26 26 24 24 24 24 23 23 22 21 24 26 27 26 25 25 25 25 24 24 23 23 22 23 24 24 25 23 24 26 26 27 27 27 25 23 22 21 20 20 20 18 18 17 16 16 15 16 16 16 16 16 16
3 2 1 2 2 3 3 2 2 4 3 3 4 5 4 4 8 7 9 9 2 3 3 4 4 3 4 7 4 5 2 4 1 3 2 11 10 19 31 30 30 26 26 26 25 26 24 24 24 24 23 23 21 21 24 25 26 25 25 24 24 24 24 24 22 22 21 22 24 24 25 23 24 26 26 26 27 26 25 23 21 20 18 18 20 20 18 17 16 15 15 15 15 14 15 16 16
3 2 1 3 2 1 2 1 2 4 3 4 2 6 5 6 7 7 10 7 2 1 2 5 3 2 4 6 2 1 4 1 2 5 3 13 13 21 31 30 30 25 25 25 25 26 24 24 24 25 23 23 21 22 24 25 25 24 24 23 22 23 23 23 22 21 21 22 24 24 24 23 23 25 25 25 26 25 24 23 21 20 18 18 20 22 20 18 17 16 15 15 15 15 15 15 14
3 3 2 3 2 1 2 1 1 2 5 5 3 7 6 7 6 6 11 8 3 3 2 4 5 4 3 2 1 1 3 2 2 5 7 15 15 23 30 28 28 25 25 25 26 27 25 25 25 25 23 22 21 21 23 24 24 23 23 22 22 21 22 22 21 21 20 22 24 23 22 22 23 24 23 23 24 24 23 22 21 20 18 18 20 22 20 19 18 17 16 16 16 15 15 13 11
4 3 2 2 1 1 3 2 3 3 5 6 5 7 9 9 4 5 10 6 4 5 3 3 7 8 3 1 1 2 3 4 3 3 9 16 18 26 27 26 26 24 24 24 26 27 26 26 25 25 23 22 21 21 22 24 23 22 22 21 21 21 21 22 21 21 20 22 24 23 22 21 23 23 22 21 22 23 22 21 20 20 18 17 20 22 20 20 19 18 17 17 16 15 13 11 10
4 2 1 3 1 2 3 1 3 3 4 5 5 7 11 11 6 5 8 4 1 3 3 3 4 6 1 3 2 3 5 6 3 3 12 19 23 26 25 26 25 22 23 22 25 26 26 26 26 25 24 23 21 20 21 23 23 22 21 21 21 20 20 21 20 21 20 20 23 23 21 20 22 23 22 21 22 22 22 21 20 18 17 16 19 21 20 19 19 18 17 16 15 14 12 10 11
3 1 1 2 1 1 1 2 4 4 5 5 6 9 12 11 7 5 7 4 1 3 1 2 1 4 1 1 0 3 6 7 2 8 16 23 25 25 24 25 24 23 22 22 24 25 25 25 26 25 23 23 21 20 21 22 22 21 21 20 20 19 19 19 20 21 20 20 21 22 21 20 21 22 22 21 21 21 20 19 19 18 16 16 18 20 21 20 18 17 16 16 14 12 11 12 12
3 2 2 1 2 0 3 2 4 3 5 6 7 11 12 10 8 7 6 2 4 4 2 2 4 6 6 2 1 3 5 5 4 12 18 21 22 22 22 23 23 23 22 22 24 25 25 24 25 25 24 22 21 20 20 21 21 20 20 19 19 19 18 18 20 21 20 20 20 22 21 20 20 21 21 22 20 19 19 18 18 17 16 16 17 19 21 20 19 17 16 15 13 12 13 13 11
3 2 2 3 3 1 3 3 4 4 5 6 7 11 11 10 7 5 2 4 2 5 4 4 7 7 6 1 2 2 3 2 6 12 16 18 19 19 21 21 22 22 22 23 23 24 24 23 24 24 23 22 21 20 20 20 20 19 19 18 18 18 17 18 20 20 20 20 20 22 21 19 19 20 20 21 20 19 19 18 17 17 16 16 16 18 20 21 19 17 16 14 13 13 14 12 11
2 1 4 4 2 3 3 3 5 6 7 5 8 9 6 7 5 3 5 6 4 6 5 2 6 6 5 1 2 3 2 2 5 10 14 16 17 17 19 20 21 21 21 23 23 24 23 22 22 22 22 22 21 20 19 19 19 18 18 18 18 18 17 17 19 19 19 19 20 20 19 18 18 18 18 19 19 19 18 17 16 16 16 16 16 17 19 20 20 18 16 14 15 15 13 11 10
3 2 4 2 3 3 3 3 4 5 6 4 6 6 2 4 3 5 6 6 3 4 3 4 10 5 4 1 2 3 2 4 6 10 14 15 15 16 18 19 21 21 21 22 22 23 22 22 21 21 21 21 21 20 19 18 18 18 18 18 18 17 16 17 19 19 18 19 19 19 18 18 17 16 16 16 17 18 18 16 15 16 16 16 15 16 18 20 20 18 16 16 16 14 12 10 10
3 2 4 2 1 2 3 2 3 2 5 6 5 5 0 1 1 5 9 8 4 1 2 6 9 4 3 1 1 3 4 7 9 12 14 15 15 14 16 18 19 19 19 20 20 22 22 21 21 20 19 19 20 20 19 18 18 18 19 19 18 16 16 18 18 18 17 18 19 18 17 17 17 16 17 16 15 16 16 15 15 16 17 17 16 16 17 19 20 19 18 18 16 14 12 10 11
4 1 4 2 1 1 2 3 3 2 4 6 4 4 3 4 2 5 6 7 2 1 4 3 3 2 4 6 4 6 8 11 11 13 15 15 15 15 16 17 18 18 18 18 19 20 20 20 20 19 19 19 19 19 19 18 18 19 19 19 18 16 17 18 18 17 17 17 18 18 16 16 16 16 17 17 14 14 15 14 14 16 17 17 17 16 17 19 21 20 20 18 15 14 12 11 12
3 2 4 1 1 1 3 3 2 2 5 6 5 3 5 5 3 5 2 3 4 3 3 0 3 2 7 7 4 8 14 15 14 15 15 15 15 15 16 16 17 17 17 18 18 19 19 19 19 19 19 19 18 18 17 16 16 18 19 19 17 17 17 18 17 17 16 16 16 17 16 15 15 15 17 17 14 13 14 13 13 15 16 17 18 17 17 19 20 21 20 17 14 14 13 12 13
1 3 2 1 2 2 3 4 2 1 5 7 6 4 6 4 4 3 5 7 7 4 4 3 5 2 5 2 6 18 19 17 16 17 17 16 16 16 16 16 16 16 17 17 18 18 18 18 19 19 19 19 19 17 17 16 15 16 19 18 17 17 17 17 17 17 16 15 15 16 16 16 15 14 16 16 14 12 12 12 13 14 15 17 18 17 17 18 20 21 20 16 14 14 14 13 13
1 3 2 2 3 4 4 6 4 1 4 6 7 3 7 3 1 2 5 8 6 5 5 4 6 7 6 8 17 23 19 17 17 18 17 15 15 15 14 15 16 15 16 16 16 17 17 17 18 19 19 19 19 17 17 16 16 17 17 18 17 17 17 17 19 18 17 16 16 16 17 17 16 15 15 16 14 12 11 11 12 14 14 15 17 17 16 18 19 20 19 16 15 13 13 13 13
3 3 2 4 4 5 5 5 5 2 3 7 8 4 6 4 3 3 3 2 2 6 5 4 7 9 8 11 18 19 17 17 16 17 16 14 14 13 12 13 16 14 15 15 15 16 17 18 18 19 19 18 18 17 16 16 17 18 18 18 17 17 18 19 20 20 18 17 17 17 17 17 16 15 15 16 14 13 11 10 12 13 14 15 16 16 16 17 18 19 18 16 15 12 11 12 13
3 3 2 5 5 5 6 7 8 6 4 4 8 6 5 3 3 4 5 3 2 4 3 2 5 7 8 9 14 15 16 15 14 15 14 12 11 12 12 12 14 14 15 14 15 16 16 19 19 18 19 18 18 18 17 18 18 18 19 19 18 17 19 20 21 20 19 19 18 18 17 17 15 14 14 14 14 13 11 10 11 13 14 14 15 16 16 16 17 18 18 17 14 11 11 12 12
2 4 4 5 4 4 8 8 8 8 4 2 5 5 5 1 3 4 8 6 1 4 6 6 10 12 11 10 11 13 15 14 12 12 11 11 10 11 11 12 13 13 15 15 16 16 14 20 20 17 19 19 19 20 19 19 19 19 19 18 18 18 19 20 20 20 20 19 18 17 16 16 15 14 15 15 15 14 12 10 11 13 14 15 15 15 16 16 16 18 19 17 14 11 11 11 11
1 3 5 4 3 5 7 4 6 8 4 2 2 2 2 1 5 5 8 6 4 6 7 8 12 15 15 13 12 12 12 12 10 11 11 11 11 12 12 13 14 14 15 15 17 18 14 18 20 18 19 20 20 21 21 21 20 20 20 19 19 19 20 21 21 20 20 18 18 17 16 16 15 15 16 16 15 14 14 12 11 12 14 15 15 15 16 16 16 18 19 18 14 12 11 10 9
2 5 3 5 5 6 5 2 6 7 4 5 2 2 1 4 2 5 7 5 7 5 8 9 10 13 15 14 13 13 12 12 11 12 13 14 14 15 16 16 16 16 17 16 18 19 17 18 22 22 21 22 21 20 21 22 21 21 21 20 20 21 21 21 21 21 20 18 17 17 17 17 16 16 16 15 15 14 15 15 12 12 13 15 16 15 15 16 16 17 19 18 14 12 10 7 6
4 5 4 6 7 8 7 5 8 6 4 7 1 1 0 2 1 3 3 5 3 5 9 10 9 11 13 12 11 11 12 12 12 14 16 17 17 18 18 17 17 17 18 18 18 20 20 20 22 22 22 23 21 20 21 21 20 21 21 19 20 22 22 22 22 21 20 18 17 17 16 16 16 16 16 14 13 14 15 16 14 13 12 13 15 15 15 15 16 17 17 17 13 12 9 4 3
4 6 6 5 6 8 9 8 9 7 6 6 0 0 3 5 2 3 1 3 4 10 11 11 11 11 10 10 10 9 9 10 10 13 15 14 13 15 17 17 18 18 19 20 20 21 21 21 21 22 22 23 21 20 20 20 19 20 21 20 20 21 22 22 21 20 20 18 17 17 16 15 15 14 14 13 12 14 16 16 15 14 13 13 14 15 15 15 15 15 16 14 12 10 8 3 2
6 7 6 5 7 9 7 7 9 8 6 3 3 5 7 6 1 4 3 1 8 11 12 11 12 11 10 9 9 8 9 9 10 12 13 13 14 15 17 18 19 21 22 21 21 22 21 21 22 23 23 22 22 21 20 20 19 20 21 21 20 20 21 20 21 21 20 18 17 16 15 14 13 13 13 12 12 14 15 16 15 13 14 15 14 15 16 16 15 15 14 12 10 9 6 3 2
5 6 6 7 10 10 6 6 8 7 5 4 7 8 7 3 2 1 5 3 9 12 11 10 11 11 10 9 8 8 9 10 12 13 12 12 15 17 19 20 21 21 21 21 22 22 22 22 23 23 23 22 21 20 20 20 20 21 21 20 19 19 19 19 20 20 19 17 17 16 16 14 13 13 14 13 13 13 14 15 14 12 14 16 16 15 16 16 15 15 14 11 9 8 6 3 3
4 2 5 8 8 7 6 6 7 4 3 7 9 5 3 4 2 6 6 5 9 12 11 10 11 10 10 10 8 7 8 11 15 14 12 13 18 20 21 23 23 22 22 24 23 22 23 24 23 22 21 20 19 18 18 19 21 22 20 19 18 18 17 15 14 16 17 16 16 17 17 16 15 15 15 15 14 14 14 14 13 12 13 15 16 16 16 16 15 14 13 11 10 8 6 4 4
3 0 3 9 6 5 6 6 5 5 4 7 8 1 5 2 3 8 9 7 8 12 11 10 10 9 9 9 8 7 7 10 13 13 16 20 22 23 24 25 25 24 24 23 22 22 23 23 23 22 20 18 18 17 18 20 21 21 21 20 19 20 19 16 14 16 18 17 16 16 16 16 16 16 16 16 16 16 15 15 14 12 12 14 15 16 16 15 14 14 13 11 10 8 7 6 6
2 1 2 5 6 5 7 3 4 7 4 6 7 2 6 6 6 6 9 10 9 10 10 9 8 7 8 8 8 7 7 9 12 16 21 23 24 25 25 25 25 25 24 22 22 22 23 24 24 22 19 18 18 18 20 22 21 21 20 18 19 20 19 18 18 19 19 18 18 18 17 17 17 18 18 18 19 18 17 16 15 13 12 14 15 16 16 15 14 13 13 12 10 10 9 8 8
1 1 1 1 1 4 8 2 6 6 2 5 7 1 8 7 5 7 8 12 13 10 10 9 8 7 8 8 8 8 6 9 14 19 22 24 25 25 24 24 24 24 23 22 23 23 24 24 23 22 20 20 21 23 24 23 21 19 16 15 16 17 17 18 18 19 20 20 20 20 19 18 19 19 18 20 22 20 18 17 15 14 14 14 15 15 14 14 14 13 13 13 12 11 10 10 9
2 0 3 3 2 4 8 4 6 7 2 2 6 2 7 6 5 11 8 11 14 11 10 9 9 9 8 8 8 7 6 9 14 18 21 23 24 24 24 23 24 23 22 22 23 24 23 22 22 22 22 23 25 26 25 22 20 18 17 17 18 18 18 18 18 19 20 22 22 21 21 20 20 19 19 22 24 22 19 17 15 14 16 17 15 15 15 16 16 15 14 14 14 13 12 11 11
3 1 3 3 2 3 5 5 3 5 2 1 2 3 4 4 3 11 10 11 12 11 11 10 10 9 8 7 7 7 6 7 10 13 18 21 22 23 24 23 24 24 23 22 23 23 21 20 21 22 24 27 28 26 24 22 21 21 21 22 22 21 20 19 19 20 21 22 23 23 23 22 21 19 21 25 24 22 19 17 15 14 17 18 16 16 16 17 18 18 16 15 14 14 13 13 13
3 1 1 2 2 2 2 4 6 0 3 2 2 3 5 0 1 7 10 11 12 12 12 11 9 8 7 6 5 5 7 8 8 10 16 19 20 22 23 23 23 23 22 22 22 22 20 20 20 22 24 26 27 26 24 24 23 23 24 25 25 22 21 20 20 22 23 23 22 23 23 22 22 20 23 26 23 20 19 18 17 16 17 18 18 17 17 19 19 19 18 15 13 13 14 15 14
2 1 1 2 3 1 2 3 3 1 1 3 3 4 10 4 4 6 11 11 10 10 11 10 9 9 7 5 5 5 7 8 7 11 17 20 20 22 21 20 21 22 23 22 21 20 19 21 21 23 25 25 26 25 24 24 24 24 24 25 24 21 21 22 22 23 25 24 23 23 23 23 23 22 25 25 22 20 19 19 21 19 18 19 20 19 18 19 19 19 18 16 14 13 14 16 15
6 3 3 0 4 3 4 5 5 3 1 5 6 6 11 7 5 6 10 8 7 6 7 8 8 8 6 5 5 6 8 8 8 14 19 19 21 21 19 18 20 21 22 21 21 20 20 21 22 24 26 26 26 24 24 26 25 24 23 23 24 24 22 21 22 24 24 24 23 23 24 24 24 24 27 26 22 21 20 21 22 22 21 21 22 20 19 18 18 18 18 18 17 16 16 16 15
3 2 2 2 3 4 6 5 6 3 3 7 8 9 11 6 4 3 7 8 8 7 7 7 6 5 5 6 7 7 7 6 8 14 16 19 20 19 18 18 19 20 20 20 20 21 21 22 23 25 25 27 27 26 26 27 27 26 25 25 26 25 22 20 20 22 22 22 22 22 24 24 24 24 27 27 24 22 21 21 23 23 22 21 20 19 18 17 16 17 18 19 19 19 19 16 16
1 1 2 4 2 4 6 5 7 2 5 5 3 8 10 4 2 2 5 9 10 11 10 9 7 5 4 6 7 7 5 5 7 9 12 17 17 15 14 14 15 16 15 17 18 20 22 22 23 25 25 26 27 27 28 27 28 29 27 25 25 23 22 20 19 21 21 21 21 22 21 21 22 24 26 25 23 23 22 22 23 23 21 20 18 17 16 16 16 17 19 20 19 20 20 18 20
2 1 1 2 3 4 6 5 6 2 4 4 2 7 8 2 1 2 6 8 9 10 12 12 11 9 7 8 8 7 7 6 6 6 10 14 12 8 6 4 4 5 5 8 12 16 19 20 22 24 25 25 26 27 28 26 27 27 23 21 22 22 23 22 21 21 21 22 22 21 19 19 22 24 24 23 21 21 21 21 22 22 20 20 18 16 16 17 17 17 19 20 19 19 18 20 21
3 3 3 3 4 1 3 5 6 5 1 2 5 5 4 4 4 1 2 4 3 3 4 6 9 10 10 11 11 11 11 10 10 8 7 6 4 6 6 6 4 3 3 5 7 12 16 16 19 22 23 24 25 27 27 26 25 23 19 17 17 18 19 19 20 20 22 22 21 20 18 20 24 25 22 21 20 19 20 20 21 21 20 19 18 16 17 18 18 18 19 19 20 19 17 20 19
2 4 5 3 5 4 5 5 6 5 4 3 6 3 4 4 3 2 4 6 4 1 3 4 5 4 3 6 7 8 8 8 8 5 3 4 8 9 6 4 6 7 7 9 9 12 14 15 17 19 20 21 23 25 25 25 24 21 17 13 11 13 13 13 16 18 19 20 21 20 17 18 22 22 21 20 19 19 21 21 21 21 20 19 17 16 18 18 18 19 19 19 20 20 19 21 19
3 4 7 8 7 6 5 4 4 5 5 3 6 4 4 5 2 2 4 7 6 2 3 2 3 2 2 5 5 4 2 2 3 4 4 5 7 7 5 6 8 8 8 11 14 14 15 16 18 19 20 19 18 20 23 24 23 21 19 15 13 12 9 9 13 15 16 18 20 19 16 16 18 19 19 18 19 21 23 22 21 20 18 17 16 15 18 19 18 19 19 19 19 20 20 23 22
2 5 9 10 7 4 4 1 3 3 1 2 5 6 2 5 5 5 5 5 7 7 6 4 3 4 3 3 2 0 3 4 5 5 4 4 6 5 4 4 5 6 6 9 14 17 18 18 18 19 21 21 18 15 16 20 21 20 21 20 16 12 10 10 14 15 16 17 17 16 16 15 15 17 17 18 19 21 22 20 19 19 17 16 15 15 17 18 19 18 18 19 19 20 20 23 24
4 6 6 8 7 6 5 3 4 2 2 3 4 5 2 2 4 8 6 4 7 10 9 8 6 5 1 3 3 4 4 4 4 5 5 4 5 4 3 4 4 4 4 7 11 15 18 19 18 16 17 21 22 15 10 10 16 21 22 19 16 16 16 16 16 15 16 17 16 16 17 16 15 16 17 18 19 19 19 20 19 18 17 16 16 15 16 18 19 18 18 19 19 20 20 22 25
7 6 6 6 7 7 5 5 4 0 2 3 7 3 4 3 5 8 6 5 7 9 8 10 9 4 2 6 5 5 5 5 5 4 4 4 4 3 2 3 4 4 2 3 6 11 14 17 16 12 10 15 19 19 12 9 16 23 21 17 16 17 18 18 16 13 14 16 16 16 16 16 15 16 17 18 17 17 18 19 18 17 16 16 16 15 16 17 19 19 18 19 19 19 19 20 23
7 5 5 4 3 4 4 5 4 3 4 1 7 1 4 3 5 7 6 5 5 6 6 9 10 7 7 7 6 6 5 5 5 4 4 4 4 3 1 2 4 5 2 1 2 6 11 15 16 14 10 12 16 18 18 18 20 22 22 19 15 16 16 17 15 13 13 14 14 14 13 15 16 17 18 18 17 17 18 18 17 16 16 16 16 15 16 17 18 18 17 17 17 18 18 18 18
3 3 5 4 5 4 4 3 4 4 2 5 7 2 5 0 4 4 4 4 4 4 6 8 9 11 10 8 7 6 5 4 4 4 4 3 3 1 1 3 5 6 5 3 1 3 8 13 15 15 12 12 14 16 19 22 22 23 26 23 19 19 19 17 15 13 14 14 13 11 11 14 16 17 17 17 17 17 17 17 16 15 16 15 16 16 16 16 17 17 15 15 16 16 17 17 16
3 3 4 3 2 4 4 4 4 4 2 6 6 2 6 3 2 2 3 4 6 6 7 8 9 10 10 8 8 6 5 4 4 4 3 4 2 2 3 6 8 10 10 8 6 5 6 10 12 14 11 15 15 14 17 22 22 21 26 24 22 23 22 19 16 14 15 15 13 10 9 12 14 15 16 16 17 16 16 16 15 15 16 16 17 18 17 17 17 16 14 15 15 16 18 17 16
4 4 5 4 1 2 1 2 1 2 3 3 4 2 4 2 2 2 3 5 8 8 7 7 8 9 9 8 7 6 5 4 4 4 4 4 4 6 7 8 10 11 12 10 8 9 8 10 12 11 9 15 15 15 18 21 20 19 24 25 23 22 21 20 18 16 16 16 14 13 12 13 14 15 16 17 17 16 16 16 16 16 17 17 18 18 17 17 17 15 14 15 15 15 17 17 17
6 5 5 5 3 3 1 2 0 2 3 3 4 2 2 1 2 1 3 6 7 8 7 7 8 9 8 8 7 6 6 5 5 5 5 5 6 10 12 14 15 16 18 15 8 9 10 11 12 10 10 14 17 19 21 22 20 21 24 25 23 22 21 21 19 18 17 17 16 16 16 16 16 16 16 17 17 16 15 16 16 17 18 18 17 17 17 17 16 15 14 15 15 15 15 16 17
4 4 6 6 4 4 3 3 3 3 2 2 3 1 2 3 3 2 3 5 6 8 6 6 7 8 7 8 8 8 7 6 5 5 6 7 9 12 13 14 16 17 19 18 10 7 8 10 12 12 15 19 21 22 24 25 24 24 25 25 23 22 21 21 21 20 19 19 18 17 18 18 17 16 15 14 14 14 15 16 17 17 17 18 18 17 16 15 15 15 15 15 15 15 14 15 16
2 2 6 3 5 5 3 3 5 5 2 1 2 2 1 2 3 3 4 5 7 9 6 6 8 7 7 8 7 7 6 5 5 5 6 7 10 12 13 14 15 16 17 17 13 6 7 10 12 15 18 21 24 26 27 27 27 26 27 26 24 22 20 19 21 21 20 19 17 17 17 16 15 15 13 12 13 14 15 16 17 18 17 17 17 17 16 16 16 16 15 15 15 15 15 15 15
1 2 4 3 4 7 5 2 1 3 4 1 0 3 2 1 1 1 5 7 7 8 6 6 7 8 8 8 6 5 5 5 5 4 5 6 8 11 13 13 14 15 16 16 14 10 7 8 9 15 19 21 24 25 26 27 28 28 28 27 25 24 22 20 22 22 20 17 16 17 16 14 14 14 13 14 15 14 15 16 17 17 18 17 16 16 16 16 16 15 14 14 14 15 15 15 14
5 3 5 2 3 5 4 2 2 4 3 2 1 4 4 3 1 2 7 8 7 7 6 6 7 8 9 8 7 7 7 6 5 6 6 8 10 12 13 13 13 14 15 15 14 13 11 11 10 10 16 22 25 24 24 26 28 30 30 27 26 25 23 23 23 23 21 19 18 18 17 15 15 16 15 16 17 16 16 17 17 17 17 16 15 15 15 14 14 13 12 13 13 14 14 14 14
4 5 4 4 3 1 1 2 2 2 2 1 3 2 3 3 2 4 7 8 7 6 5 6 6 7 7 7 7 8 8 6 7 7 8 9 12 15 15 15 14 15 15 14 13 13 13 12 12 12 14 19 20 19 20 22 24 27 28 27 26 25 24 23 23 22 21 20 19 19 19 17 16 17 18 19 19 18 17 17 16 16 16 16 14 14 15 15 14 13 13 12 12 13 13 13 12
4 4 3 2 3 4 2 2 3 4 3 2 2 1 2 3 3 5 9 9 8 7 5 6 6 6 6 5 6 7 7 7 7 8 8 9 11 15 17 17 17 16 16 16 15 15 14 13 13 14 16 18 18 18 18 19 20 22 23 23 23 23 23 23 22 22 21 20 20 20 19 18 17 18 19 20 20 19 18 17 16 16 17 16 15 15 17 17 15 14 13 13 13 13 12 11 11
3 3 1 0 2 2 2 1 2 4 4 3 3 0 4 4 2 5 9 9 8 7 6 6 5 5 6 6 6 6 6 6 7 7 7 8 11 15 16 18 18 17 18 19 18 17 16 15 14 14 15 15 15 15 15 16 19 20 19 18 19 20 21 22 22 21 21 20 20 20 20 20 20 21 20 19 19 20 19 18 18 17 17 16 15 16 17 17 15 14 13 13 13 12 11 10 10
4 3 2 3 3 4 3 0 1 2 4 4 5 2 4 3 1 4 8 8 8 8 7 6 5 6 7 6 7 7 7 7 7 7 7 8 12 15 17 19 19 19 21 22 21 18 17 18 18 17 15 14 14 12 9 9 12 16 15 14 16 17 18 19 21 20 20 20 21 21 21 21 23 23 21 18 19 20 21 21 19 18 17 16 15 15 16 16 15 14 13 13 13 12 12 11 10
Wind_Direction
36 50 57 104 82 135 11 64 90 332 96 26 272 217 256 231 241 282 295 285 279 334 41 60 61 75 93 117 137 132 84 115 191 144 200 256 186 186 188 188 175 167 169 170 173 171 171 169 168 168 164 162 157 153 154 153 148 146 143 141 139 138 137 135 134 132 130 127 124 122 121 121 119 117 115 114 111 109 107 107 110 112 114 113 113 111 108 103 98 97 97 99 99 99 100 102 102
74 84 72 99 35 85 234 71 102 323 59 337 270 180 251 287 267 242 250 247 185 129 88 82 82 84 104 124 133 104 39 356 338 151 255 172 157 181 188 182 172 169 171 170 171 169 168 168 168 169 165 162 158 155 156 156 151 148 146 142 140 139 138 137 136 134 131 128 126 124 123 122 121 121 119 116 112 110 109 107 109 112 116 116 116 115 112 109 102 99 99 102 102 102 103 102 99
102 127 57 82 27 49 59 46 95 38 89 242 271 229 256 310 241 237 235 233 192 151 124 84 80 82 99 81 47 51 348 308 40 114 99 154 157 185 184 177 173 171 170 167 167 167 166 168 170 170 166 162 159 156 158 157 153 150 148 144 142 140 139 138 136 134 132 129 128 128 126 124 125 124 121 117 115 113 112 111 111 112 115 117 121 119 116 114 109 104 102 104 104 102 103 103 100
123 155 6 63 35 25 61 51 135 123 126 212 266 257 233 229 245 261 252 246 245 183 131 75 52 9 69 85 72 52 176 279 204 155 132 179 193 184 176 173 172 170 168 166 165 165 166 168 171 170 167 165 161 158 159 159 157 153 150 147 144 142 139 137 134 132 131 130 129 130 128 127 128 126 123 120 119 118 118 116 114 114 113 115 122 125 121 117 116 113 110 110 106 104 107 108 104
142 166 4 68 84 13 100 95 118 120 187 193 225 262 228 218 252 287 277 284 323 214 119 109 75 352 57 85 124 82 176 322 207 204 195 196 205 178 170 171 170 169 168 166 165 166 167 168 170 171 169 167 163 160 161 161 159 155 152 150 147 144 140 136 133 132 131 131 130 131 130 129 130 128 125 122 122 123 123 120 117 116 115 116 123 129 128 125 123 120 120 121 118 114 113 109 100
146 129 51 52 96 184 114 125 169 186 227 182 202 266 252 239 251 288 296 315 43 86 79 119 113 126 78 36 265 229 195 15 216 216 202 196 196 173 168 168 168 168 169 168 167 166 166 168 170 171 170 167 163 161 162 162 160 156 154 151 149 146 141 138 135 134 133 132 131 132 131 132 133 130 127 125 127 129 126 123 120 118 116 119 125 131 133 134 134 130 130 130 127 122 115 106 94
143 115 30 47 29 28 106 182 200 231 242 188 206 261 271 272 263 303 309 323 54 50 28 101 117 118 97 279 239 279 300 340 324 232 198 190 178 168 167 166 166 167 168 168 167 167 167 169 171 172 172 168 164 163 162 162 160 158 156 153 152 149 144 141 138 137 135 134 133 133 132 135 136 132 129 128 132 131 125 122 120 119 118 121 127 134 137 139 141 139 137 135 131 124 116 106 91
138 134 28 99 45 7 108 229 228 217 247 219 237 266 273 278 283 305 306 303 26 40 85 124 115 94 5 243 186 276 332 351 347 181 178 171 166 165 168 166 164 167 168 169 167 167 168 170 172 172 172 170 166 163 161 161 162 161 159 157 154 149 145 143 141 139 137 135 136 135 134 138 138 134 132 131 131 128 123 122 120 121 122 122 127 136 141 143 145 144 142 138 133 126 118 105 92
100 90 85 108 131 3 45 285 261 232 258 258 259 268 269 275 283 279 285 295 121 94 97 219 122 91 147 202 214 284 348 358 62 145 156 158 163 165 168 167 165 167 167 170 169 167 168 171 173 173 174 171 166 163 161 162 164 164 163 159 154 148 146 145 144 141 139 138 139 139 137 139 139 136 136 132 129 126 124 124 124 125 124 123 125 135 144 148 149 149 146 142 136 126 116 104 96
43 31 136 90 110 11 306 278 262 252 252 256 252 258 265 271 278 269 262 216 137 99 64 57 77 118 142 134 282 300 350 351 119 137 149 153 159 163 167 169 168 167 168 172 170 169 169 172 175 176 176 171 168 165 163 164 166 167 164 158 152 148 148 148 148 144 141 142 144 144 141 142 141 139 138 134 129 129 129 128 129 127 125 124 124 132 145 151 153 154 151 145 136 124 115 105 99
33 332 112 72 80 183 260 257 268 263 260 283 273 256 252 251 256 264 193 142 128 114 146 81 82 125 119 115 266 320 353 49 121 139 150 153 156 163 168 171 172 168 169 171 170 170 169 172 176 177 176 172 171 168 166 167 168 169 166 160 156 153 153 153 151 147 145 147 149 148 145 145 145 142 139 136 134 134 133 131 130 128 125 124 124 129 141 151 156 157 153 146 134 123 114 106 101
100 295 76 92 145 189 213 238 269 275 284 291 277 268 231 212 205 183 129 128 138 146 198 156 139 151 94 160 259 337 336 122 134 148 154 156 157 164 169 171 173 172 170 169 169 170 169 172 174 175 177 175 173 171 171 171 171 171 169 165 162 159 156 157 155 150 149 150 152 151 147 147 147 144 141 139 139 138 133 133 132 128 125 123 124 129 138 149 156 157 152 143 133 123 114 106 103
140 166 92 128 191 170 204 237 277 300 300 263 246 272 173 171 188 157 117 95 120 180 251 143 154 155 94 187 300 338 270 195 161 154 158 157 159 164 168 171 173 173 170 168 168 169 170 172 172 174 176 176 174 173 174 174 174 174 172 169 166 164 159 161 159 154 152 152 155 155 152 149 146 144 142 141 142 140 137 138 135 127 126 125 125 129 137 147 154 155 148 139 131 122 111 103 101
165 162 121 171 205 156 211 246 288 299 284 263 247 283 90 61 307 133 109 80 26 258 92 114 144 118 102 149 308 259 218 192 165 156 160 156 159 161 162 169 173 173 168 167 168 168 170 172 172 173 175 175 174 174 176 177 176 175 174 172 170 167 163 163 162 158 155 154 157 158 156 152 147 147 146 146 148 145 143 143 135 130 129 127 128 130 137 146 151 151 143 137 130 118 106 97 99
184 137 104 129 324 252 228 220 239 192 260 273 274 312 41 34 56 98 96 108 61 7 84 108 147 62 168 170 213 221 176 169 163 157 156 152 155 156 158 164 167 170 167 166 167 169 170 172 174 173 176 176 173 173 176 177 177 177 175 174 173 169 167 166 165 162 156 156 160 159 158 153 149 150 150 151 154 151 148 143 136 134 132 129 131 131 137 146 149 147 141 136 129 117 102 93 100
173 94 74 112 228 242 220 217 217 178 263 267 283 330 64 15 45 88 348 135 116 18 43 45 308 318 175 181 209 163 150 156 157 154 150 146 148 148 153 157 158 162 164 167 166 170 171 173 175 173 176 176 174 174 175 176 178 178 175 175 174 172 171 171 170 165 159 159 162 162 158 153 151 153 153 154 158 156 151 144 137 137 135 132 133 133 137 145 148 145 142 138 130 117 101 91 101
114 92 67 300 202 212 208 213 187 151 269 275 309 1 93 13 11 84 4 61 91 48 34 27 342 349 152 153 128 131 139 151 149 148 143 141 143 140 145 152 153 152 156 165 167 170 171 173 175 175 176 176 176 175 176 177 178 180 177 176 175 175 177 177 174 167 165 164 164 166 162 157 156 158 157 157 161 161 157 148 140 140 138 136 136 135 137 144 148 146 145 141 131 117 103 95 99
126 118 149 226 198 209 197 203 211 162 281 288 308 1 106 95 58 102 37 48 71 62 33 33 38 44 71 92 117 126 138 148 149 147 143 142 143 138 140 147 152 151 150 155 163 168 170 172 175 176 177 178 179 179 179 179 178 180 180 178 178 179 182 180 175 171 171 169 167 170 169 165 160 162 164 162 164 162 163 155 143 143 143 140 139 138 138 143 149 149 149 145 132 118 104 98 103
166 133 159 221 203 218 213 218 255 246 263 293 294 314 89 138 167 106 84 58 82 82 44 29 66 74 83 102 115 126 140 148 153 152 148 148 147 144 142 147 154 156 153 151 153 162 169 170 174 177 178 179 181 183 182 182 181 182 183 182 181 183 183 180 176 173 173 172 173 175 175 171 164 165 168 167 165 161 167 161 147 148 147 144 143 142 141 143 150 153 153 148 134 117 105 96 103
182 137 180 235 210 241 256 242 259 257 253 287 281 311 57 163 180 94 123 125 80 125 138 102 116 130 119 116 121 132 148 153 157 154 149 145 145 152 154 157 158 157 159 159 154 158 167 169 171 174 178 184 185 187 186 187 186 185 186 184 184 186 184 182 179 176 176 176 177 179 179 175 168 166 168 170 169 165 172 169 155 153 152 151 147 146 145 144 151 156 156 151 136 120 110 98 100
186 166 202 236 190 239 264 249 262 277 282 216 250 335 24 167 100 108 135 117 311 212 206 183 163 156 138 135 138 145 156 157 153 151 149 145 149 158 163 164 162 160 161 164 163 168 167 164 169 167 174 187 192 192 190 190 189 187 189 188 189 188 186 185 181 180 180 181 180 181 181 179 175 170 170 173 173 172 180 181 165 160 158 156 153 150 149 147 150 155 156 153 141 128 116 105 105
190 229 220 228 184 235 261 242 256 274 284 220 189 48 349 14 90 143 143 136 223 210 204 196 167 157 149 146 150 157 160 156 153 155 158 157 158 160 167 168 165 164 163 164 167 179 177 165 175 175 177 191 197 196 192 192 191 191 193 193 193 191 191 189 186 187 185 184 183 182 182 181 180 177 177 178 176 177 187 191 176 166 164 160 157 156 154 151 151 153 156 156 151 140 125 113 114
207 273 247 224 217 235 268 261 257 271 268 254 208 162 247 27 69 173 152 184 232 186 159 167 161 153 148 148 156 164 161 161 164 168 170 169 169 171 173 171 170 167 167 170 169 180 185 178 186 189 189 197 200 197 192 193 193 195 196 196 196 194 196 194 191 192 190 188 186 184 184 183 182 182 185 185 179 179 189 196 185 172 168 163 162 161 159 156 153 154 157 161 161 152 138 122 129
192 264 272 250 234 233 254 250 263 279 251 257 282 111 9 17 285 160 158 249 238 118 124 137 144 142 144 152 162 165 162 166 170 175 180 181 179 177 177 175 175 172 170 176 177 180 185 187 191 193 196 200 200 197 194 194 195 198 199 200 201 198 200 198 196 196 193 193 190 189 186 185 186 187 191 186 181 185 192 199 193 181 174 167 166 165 164 160 156 154 158 165 166 160 153 146 171
206 237 260 262 248 241 247 245 258 268 257 265 280 203 230 214 226 86 194 270 106 112 119 131 139 141 150 160 164 163 161 166 170 175 184 188 180 175 180 181 178 180 179 181 184 185 186 189 191 194 197 198 199 197 196 195 196 201 202 202 202 203 205 202 199 197 197 196 194 193 189 189 191 193 197 187 184 192 195 203 201 191 185 175 169 169 169 165 162 157 159 167 169 167 165 166 193
218 222 250 259 263 255 244 242 245 241 248 243 181 249 258 230 149 33 296 180 117 118 124 139 144 147 158 163 168 169 165 169 170 170 177 180 176 177 184 188 187 188 189 187 189 189 187 189 191 194 196 198 198 196 197 196 196 201 204 203 202 206 210 208 202 196 197 198 194 194 192 194 198 201 205 196 192 194 194 202 202 196 191 185 178 175 174 170 168 163 164 170 172 174 175 172 183
209 210 249 247 257 261 233 234 235 219 227 191 185 235 267 280 111 90 281 179 131 122 127 143 147 157 165 165 176 178 175 175 169 163 162 166 175 184 189 193 196 194 193 193 195 192 188 190 193 195 197 198 196 195 195 194 196 200 203 204 203 209 213 213 209 196 195 198 193 196 195 194 201 210 213 207 201 196 193 198 199 194 190 188 184 180 179 177 172 169 171 176 179 183 183 185 191
230 225 297 270 267 271 233 230 233 192 216 190 176 226 298 358 128 175 199 175 144 131 135 150 153 166 168 169 181 183 186 176 167 160 159 172 183 190 193 197 198 197 198 199 200 195 191 193 194 196 197 196 193 192 193 196 202 203 202 203 203 207 210 210 208 197 198 201 198 203 204 197 198 208 216 214 210 202 196 196 196 194 187 186 185 182 181 180 177 175 178 181 185 189 186 182 182
269 45 317 292 325 313 242 228 215 177 209 188 155 324 315 294 228 184 167 156 145 136 143 155 161 170 168 176 188 191 191 171 167 173 179 185 190 193 197 201 201 200 203 202 201 198 195 197 197 197 195 191 189 190 198 205 209 208 202 199 200 207 212 208 201 199 204 209 209 212 214 207 201 205 212 218 216 207 201 197 195 191 184 182 180 177 178 177 176 177 181 184 187 186 178 172 173
281 97 171 282 349 327 261 232 175 172 189 173 146 299 271 262 263 198 157 143 142 143 153 162 166 172 171 180 193 199 191 174 179 188 189 191 193 195 198 203 204 203 203 201 201 201 200 200 197 194 189 185 188 196 208 213 214 210 203 200 204 210 213 209 202 201 207 214 215 216 219 217 211 206 207 218 220 212 206 201 195 190 183 179 175 174 175 173 173 178 182 183 183 182 176 173 180
306 288 200 292 329 280 286 283 149 160 201 152 128 229 256 268 253 201 167 150 152 156 164 168 170 175 176 183 195 202 197 192 195 193 194 195 195 197 199 202 202 202 201 199 204 206 205 202 196 189 183 185 197 207 213 215 214 210 206 211 220 221 216 212 211 208 210 215 216 216 219 221 217 209 206 216 218 213 208 200 196 196 191 185 180 179 179 176 178 183 186 183 177 174 173 172 183
36 301 289 316 188 256 304 303 159 163 247 123 119 194 266 282 200 186 178 161 159 161 170 173 176 179 179 186 194 199 204 208 205 201 200 200 198 198 199 201 201 201 201 200 204 208 205 198 192 184 181 192 205 210 211 210 210 212 215 219 227 232 225 221 221 218 214 214 216 217 219 219 215 211 210 217 217 212 206 199 199 200 193 190 187 185 183 181 184 188 189 189 178 166 167 170 177
7 115 241 274 213 265 309 315 261 184 164 15 144 197 264 319 211 186 175 172 166 161 174 178 178 182 183 185 188 192 203 213 212 208 205 203 201 200 200 202 201 200 201 202 204 203 197 191 188 183 185 198 208 209 206 205 207 214 218 218 223 227 226 224 221 219 216 214 216 218 218 215 212 211 215 219 216 210 205 199 198 195 189 190 190 186 183 182 185 186 184 187 185 170 167 170 169
316 21 208 255 250 261 277 311 319 135 133 217 206 222 229 104 90 186 179 179 175 168 175 180 181 185 184 176 172 183 202 210 208 204 204 202 200 201 202 202 200 198 200 204 204 197 190 188 189 187 191 200 208 209 207 208 212 214 218 221 224 225 224 223 221 218 216 215 218 221 219 216 212 212 217 219 214 209 207 199 193 189 187 189 186 179 178 180 184 186 182 180 186 181 173 170 164
191 343 80 301 314 320 264 278 298 4 131 210 181 239 243 198 108 187 202 190 179 177 174 177 184 184 180 167 164 186 206 212 208 199 201 200 200 202 202 199 197 197 200 203 199 191 186 189 192 196 200 202 207 210 209 211 214 216 222 225 227 229 225 222 222 221 217 216 220 221 219 218 217 214 216 217 211 207 206 198 191 188 189 188 184 179 177 181 185 190 189 180 177 179 176 170 160
149 146 118 304 322 301 269 256 261 273 270 238 200 220 246 222 124 168 205 191 163 171 176 181 187 182 175 164 172 193 203 209 204 198 197 197 200 202 200 197 195 196 200 197 190 186 185 187 190 198 207 208 207 206 207 210 211 216 224 226 225 228 227 224 223 221 220 220 222 222 218 215 216 214 214 215 210 206 202 196 189 186 188 188 187 186 183 187 192 193 191 182 172 163 163 164 158
129 76 52 320 318 293 281 272 275 247 199 249 213 212 247 226 129 158 189 170 155 163 179 193 191 179 170 171 187 198 202 207 199 196 195 195 201 203 199 195 192 193 196 191 185 185 186 187 189 196 207 212 207 202 204 207 207 211 219 222 222 223 224 224 224 224 224 226 225 222 216 212 212 213 214 213 210 206 199 192 186 182 185 188 189 188 186 190 195 194 187 180 173 159 154 158 157
45 7 353 322 300 269 279 278 290 252 181 256 189 199 246 220 137 268 172 164 176 175 177 186 183 176 176 182 192 197 201 205 192 191 194 198 202 201 197 193 188 189 192 188 185 184 187 190 194 199 207 212 210 206 206 208 209 212 216 221 221 221 222 223 226 228 228 231 229 222 216 213 212 211 212 210 206 203 196 189 185 183 185 189 190 186 186 191 192 193 185 177 174 165 157 160 160
101 103 85 307 269 284 298 282 302 332 171 256 153 178 240 270 54 224 173 180 196 188 182 180 173 169 178 189 190 193 197 197 191 191 198 201 197 186 181 162 159 177 185 188 185 185 189 194 200 205 207 210 212 210 209 209 211 215 218 224 226 225 226 226 228 230 227 227 230 229 223 217 214 210 207 204 201 201 196 189 188 187 188 191 192 186 186 191 193 193 187 179 173 164 158 163 168
124 136 130 255 258 289 296 284 313 343 135 194 140 165 264 344 11 347 228 248 242 211 189 174 178 177 182 192 188 184 187 189 191 192 195 187 127 80 69 63 81 128 157 176 182 187 194 200 207 211 211 213 214 212 211 211 212 216 219 227 231 228 228 229 229 231 230 229 231 230 221 214 213 209 206 199 195 202 201 194 192 191 191 194 197 194 189 191 195 195 190 185 176 164 158 166 175
241 189 164 220 250 216 226 275 321 339 1 70 98 65 325 343 8 34 357 326 308 206 144 150 208 204 180 201 202 196 194 191 185 169 114 79 72 75 88 136 168 164 167 178 180 184 195 205 213 217 217 218 220 218 215 212 213 215 214 218 221 219 221 224 223 227 233 234 231 225 214 214 213 205 204 198 193 203 205 198 195 194 193 196 200 202 198 194 196 198 195 192 187 179 172 173 179
290 232 190 202 232 237 242 300 356 27 8 12 84 76 303 310 337 70 29 344 330 331 130 150 233 247 170 193 212 233 288 40 82 84 83 86 89 107 143 176 179 170 173 185 188 187 191 201 211 218 220 222 227 228 223 219 219 216 212 213 212 209 207 208 214 222 230 234 233 227 220 223 220 208 205 200 195 203 206 200 197 197 196 198 201 205 205 199 197 202 200 196 195 194 184 177 180
281 236 195 198 209 200 209 250 54 78 343 332 80 113 236 317 353 357 9 8 6 17 16 355 306 262 225 194 190 56 30 51 74 86 92 85 86 106 134 153 173 177 175 191 196 194 192 194 202 212 217 222 230 236 235 227 222 222 221 219 218 217 216 218 224 226 229 234 236 232 229 229 225 214 204 199 199 203 206 204 200 201 200 198 202 207 209 207 203 204 204 200 198 197 191 182 183
236 233 167 169 168 162 184 134 92 178 218 337 19 100 131 316 327 336 356 64 42 27 9 347 316 275 295 54 62 67 59 68 84 86 80 73 88 108 135 154 179 186 176 194 200 201 200 196 198 202 208 218 224 230 248 246 232 234 234 226 224 228 233 236 235 232 232 236 237 234 232 230 225 216 203 199 201 201 206 207 201 201 200 199 204 208 211 212 208 204 203 201 198 198 198 192 187
241 225 146 156 165 159 164 110 91 360 84 344 319 51 94 275 294 333 358 65 45 22 10 360 342 309 101 88 89 91 80 78 77 79 80 72 87 105 135 165 196 208 186 179 193 206 209 206 208 207 208 218 220 217 224 247 243 243 246 238 230 232 237 243 242 238 234 231 231 230 230 231 226 212 200 198 200 201 204 204 199 199 198 198 204 208 213 213 209 205 201 199 200 202 204 200 194
244 201 129 91 84 109 102 99 104 40 63 230 273 35 111 270 314 345 357 28 18 1 13 17 9 22 69 84 87 91 86 86 81 74 72 64 75 96 131 184 217 231 235 117 156 202 210 215 215 212 217 222 221 218 220 231 236 240 248 247 241 239 239 244 243 234 228 222 221 220 219 223 219 202 193 193 193 195 198 201 202 200 196 199 203 205 206 206 203 202 200 199 203 207 206 206 206
201 150 129 73 34 41 51 65 92 68 30 248 251 182 113 199 317 347 352 349 347 359 27 30 28 37 52 65 71 72 70 73 74 66 51 44 65 98 236 245 247 252 257 250 238 219 213 216 213 209 206 193 198 213 219 224 227 234 243 246 248 248 242 240 237 228 226 221 216 213 206 211 210 196 188 187 185 187 193 200 204 201 197 200 200 198 195 194 195 195 196 199 201 207 209 211 215
113 111 136 145 322 21 33 356 50 91 250 261 251 164 98 106 260 322 359 16 29 35 39 38 43 46 49 56 60 59 63 63 60 61 34 17 11 297 263 256 257 257 257 247 238 243 226 218 217 210 177 141 154 189 208 213 216 231 243 243 243 247 244 239 233 226 225 219 209 206 203 204 201 191 187 188 185 186 192 199 203 200 198 198 195 192 191 191 191 190 195 200 201 206 210 214 216
123 110 103 129 238 28 49 305 56 151 240 249 220 166 80 90 224 303 6 44 42 39 44 45 51 57 54 52 49 45 51 47 38 37 17 6 357 344 334 316 303 295 296 287 252 241 231 218 218 208 157 134 155 190 205 206 208 228 243 241 239 242 244 241 235 226 221 217 207 199 194 195 196 193 192 193 192 190 194 200 203 201 199 196 191 189 191 191 190 190 195 198 200 205 210 215 217
161 157 127 132 123 96 187 264 124 207 250 232 221 166 99 149 180 301 21 52 54 52 53 55 59 61 59 53 45 39 35 29 20 14 7 3 359 358 355 346 340 337 338 339 301 252 240 222 211 198 174 169 184 203 209 204 207 224 237 237 235 237 241 241 236 227 220 217 212 201 194 195 199 201 197 196 194 192 197 204 206 203 199 195 192 190 190 190 191 195 199 201 203 206 209 213 215
174 168 130 141 152 137 186 204 162 198 226 266 287 79 152 181 138 105 68 55 66 71 55 54 64 62 66 61 52 46 35 26 19 9 10 9 2 2 359 353 351 347 348 352 339 279 253 230 207 196 193 192 201 213 211 206 210 219 227 231 231 234 239 240 237 233 225 220 216 207 201 200 202 206 204 202 201 199 202 205 204 201 197 194 193 191 190 190 193 197 201 205 206 206 207 208 210
217 149 105 142 181 142 131 172 172 180 155 357 345 80 159 167 114 96 94 62 63 76 58 51 59 55 67 66 57 57 44 32 25 14 16 14 7 5 0 357 358 358 359 359 352 324 271 249 221 209 208 205 210 217 215 213 216 216 218 224 227 230 233 236 237 235 229 225 220 214 209 205 201 202 206 209 208 204 205 203 199 197 196 195 194 192 192 194 196 199 203 204 204 205 204 204 205
151 117 148 199 174 122 112 180 215 110 127 210 315 116 108 124 117 90 102 79 67 77 65 57 60 56 64 63 60 61 50 42 32 20 17 12 9 9 7 6 6 8 9 6 2 354 319 290 254 223 219 218 218 221 220 220 220 217 217 219 221 222 223 228 233 231 226 222 216 213 212 204 193 193 200 203 199 199 202 199 194 193 195 194 193 194 195 196 198 201 203 201 201 201 200 202 204
123 164 192 166 83 89 104 143 3 51 129 252 347 120 153 151 203 173 117 99 87 86 74 65 60 58 64 60 56 51 38 31 23 18 18 15 16 16 15 15 15 16 14 9 7 0 346 329 307 262 241 237 231 227 223 222 222 220 218 216 216 217 217 221 225 225 222 215 207 205 206 200 190 188 191 191 189 192 193 190 187 187 189 188 188 191 192 194 197 198 197 194 194 196 197 199 203
123 166 164 111 113 170 83 130 141 102 153 262 20 84 175 162 182 169 130 114 112 103 87 81 67 63 64 52 48 42 29 22 18 21 22 20 22 21 20 22 22 24 21 16 15 5 354 340 319 298 280 265 253 242 229 221 221 222 221 218 217 216 214 215 218 220 218 212 204 199 198 198 193 189 186 183 184 187 185 184 186 186 185 183 184 189 188 189 191 193 194 192 190 192 195 196 199
58 89 77 82 136 160 154 142 149 146 168 192 78 59 233 215 200 157 136 131 130 123 114 104 88 78 70 49 48 42 30 24 18 21 22 18 21 21 22 26 26 27 26 23 24 18 7 353 330 309 301 294 283 268 246 226 221 225 226 223 219 215 213 213 215 217 215 211 205 197 193 194 193 189 185 183 182 182 181 182 184 184 181 180 183 187 188 190 194 199 200 198 195 195 197 199 201
118 105 105 207 92 113 148 113 105 133 148 164 131 143 262 248 217 152 139 136 136 133 124 110 95 85 71 49 50 45 34 30 18 14 18 13 14 16 19 23 21 21 24 25 26 21 12 4 350 331 318 316 310 289 260 237 230 230 232 229 221 215 213 213 213 214 214 210 204 198 192 191 189 184 183 188 188 182 179 177 175 175 176 177 181 184 187 194 200 205 204 200 198 193 192 195 196
142 143 161 174 133 116 128 180 297 109 115 157 153 178 261 263 248 155 138 137 142 140 127 106 81 74 66 47 42 42 35 31 17 8 13 11 10 11 15 18 15 12 15 20 21 17 11 8 5 358 350 344 338 322 290 261 240 230 231 231 223 216 212 212 211 211 212 208 202 199 194 190 186 178 176 188 191 182 179 178 175 175 176 178 181 181 185 196 202 201 196 192 189 184 183 186 189
Height
774 774 774 774 774 773 775 775 786 791 795 806 804 799 786 775 773 769 766 758 755 752 748 748 746 745 749 757 761 763 766 766 767 774 775 760 748 753 757 760 763 763 765 766 767 770 771 773 773 775 776 777 778 778 780 781 783 785 787 788 788 789 789 789 790 791 791 792 793 795 796 797 799 801 802 803 804 805 807 807 808 810 811 812 813 814 815 815 816 817 817 817 817 817 817 817 818
774 775 774 774 774 775 779 778 792 801 802 806 798 794 781 773 775 768 765 757 754 754 748 748 748 750 753 755 757 760 764 765 762 762 760 753 752 755 757 761 762 763 764 765 767 769 772 774 775 777 777 778 779 779 781 782 784 785 787 788 789 789 789 790 790 791 792 793 794 795 797 798 800 802 803 804 805 806 807 809 810 811 812 813 814 815 816 816 817 817 818 818 818 819 819 819 819
774 775 774 775 775 775 780 782 796 807 807 804 792 786 778 773 770 761 758 752 750 750 748 747 750 753 755 757 757 762 766 763 760 759 758 755 755 755 757 760 762 764 765 767 769 770 773 775 776 778 778 779 780 781 782 783 785 786 788 789 789 790 790 791 791 792 793 794 795 796 798 800 801 803 804 804 805 807 808 810 811 812 813 814 815 816 817 818 818 818 819 819 820 820 820 820 820
774 775 774 774 777 779 784 789 798 804 807 806 791 778 775 772 763 758 753 747 750 748 747 750 754 755 755 762 762 766 769 763 760 759 759 756 754 754 756 760 763 766 767 768 769 770 773 775 777 778 779 780 781 782 783 784 785 787 789 790 790 791 791 792 793 794 795 796 796 798 799 801 803 804 805 805 806 807 809 810 812 813 814 815 815 816 817 818 819 819 820 820 821 821 821 821 821
774 775 775 774 781 783 786 794 801 803 800 800 787 771 769 767 760 759 751 747 751 749 748 751 759 758 756 763 765 766 766 762 760 759 759 756 755 756 758 761 764 766 768 769 769 771 773 775 777 778 779 780 782 783 784 785 786 788 790 791 792 792 793 793 794 795 796 797 798 799 800 802 804 805 806 806 807 808 809 811 813 814 815 815 816 816 817 819 819 820 821 821 822 822 822 822 822
774 775 775 775 780 781 789 798 802 803 791 788 785 769 764 762 762 760 752 750 749 748 749 751 757 760 764 765 763 762 760 761 761 758 758 756 756 758 760 762 764 767 768 769 770 771 773 775 777 779 780 782 783 784 786 786 788 789 791 792 792 793 793 794 795 796 797 798 799 801 802 803 804 806 806 807 808 809 810 811 813 815 816 816 816 818 818 819 820 821 822 822 823 823 823 823 823
774 776 777 779 782 783 795 802 800 800 785 780 780 768 763 760 761 760 755 755 751 750 751 752 752 759 769 767 764 760 757 760 759 758 757 756 758 759 762 764 766 768 769 770 771 772 773 775 777 780 781 783 784 785 787 788 789 791 792 793 793 794 794 795 795 797 798 799 801 802 803 804 805 806 807 808 809 810 811 812 814 815 817 817 817 819 819 820 821 822 822 823 824 824 824 824 824
774 777 780 784 789 791 799 801 797 796 782 775 773 766 762 758 758 761 759 758 756 755 755 755 752 761 771 766 766 762 756 760 758 758 757 757 759 760 763 765 767 769 771 772 772 774 774 776 778 780 782 784 785 787 788 789 791 792 793 794 794 795 796 796 797 798 799 800 802 803 805 805 806 807 808 809 809 810 812 813 815 816 817 818 818 819 820 821 822 822 823 824 824 825 825 825 825
774 778 782 786 793 796 799 799 794 790 781 774 771 765 759 756 757 760 760 760 759 758 758 756 753 763 771 767 767 761 758 761 759 759 758 759 760 762 765 766 768 769 771 773 774 775 776 777 778 781 783 785 787 788 790 791 793 794 795 795 796 797 798 798 798 799 800 802 803 804 805 806 807 808 809 809 810 811 812 814 815 817 817 818 819 820 821 822 823 823 824 825 825 826 826 826 826
776 779 783 789 795 800 800 799 793 786 778 771 768 763 757 755 755 757 759 763 759 759 760 755 755 764 769 769 767 761 760 761 759 760 760 762 763 764 767 767 769 769 772 773 774 776 777 779 780 782 784 786 788 789 791 793 794 795 796 797 797 798 800 801 800 801 801 803 804 805 806 807 808 809 810 810 811 812 813 815 816 817 818 819 819 820 822 822 824 824 825 826 826 827 827 827 827
781 781 782 792 799 801 800 797 791 783 776 770 766 758 755 753 755 757 757 761 759 760 760 756 763 767 768 771 767 761 761 761 761 762 762 764 765 767 768 769 770 771 772 773 775 777 778 781 782 784 785 787 789 790 792 794 795 796 797 798 798 799 801 802 803 803 803 804 805 806 806 807 809 810 811 811 812 813 814 815 816 817 818 819 820 821 822 823 824 825 826 826 827 827 828 828 827
783 784 784 795 800 799 798 796 789 781 776 772 765 752 750 751 754 756 757 759 759 762 758 756 763 764 771 774 766 761 761 762 762 763 764 765 767 768 769 771 772 773 774 775 777 778 780 782 783 786 787 788 790 792 793 794 796 797 798 798 799 799 800 803 804 804 805 806 807 807 808 808 810 811 812 812 813 814 815 816 816 817 818 820 820 821 822 824 825 826 827 827 828 828 829 829 828
782 785 786 793 796 795 795 793 786 783 779 770 761 749 747 748 750 753 755 758 760 763 757 752 756 759 772 774 765 763 762 763 763 764 766 767 769 770 771 772 773 775 776 776 778 780 781 783 785 787 789 790 791 793 794 796 797 798 799 799 800 801 801 803 805 805 806 807 808 809 809 809 810 812 813 814 815 815 816 816 817 818 819 820 821 822 823 824 825 826 828 828 829 829 829 829 829
779 781 783 790 794 792 790 789 784 786 779 764 756 748 746 749 749 749 752 760 763 760 755 751 753 759 770 773 769 765 762 763 764 766 767 768 770 771 772 773 775 776 777 779 780 782 783 785 787 789 791 792 793 795 796 797 798 799 800 800 802 802 802 804 805 806 807 808 809 810 810 810 811 812 814 816 816 817 817 817 818 818 819 820 821 822 823 824 826 827 829 829 830 830 830 830 830
776 779 781 788 793 791 788 786 783 786 778 761 755 749 748 750 748 750 751 759 763 755 753 753 752 759 766 768 767 761 760 763 764 767 768 769 770 772 773 774 776 778 779 780 782 783 785 787 788 790 792 794 795 796 797 799 800 800 801 802 803 804 804 805 807 808 809 810 810 811 812 812 812 812 814 816 817 818 818 819 819 819 820 821 822 823 823 825 826 828 829 831 831 831 831 830 831
774 777 783 789 793 792 788 784 781 784 775 760 754 749 752 753 748 752 751 751 757 755 755 758 754 757 760 760 758 755 759 763 765 768 768 770 771 772 774 776 778 779 780 781 783 785 786 788 789 791 793 795 796 797 799 800 801 802 802 803 804 805 806 807 808 809 810 811 811 812 812 813 814 814 814 815 818 819 820 820 820 820 821 821 822 823 824 825 827 829 830 832 832 832 832 831 832
773 778 788 792 793 792 785 781 778 777 770 759 754 750 754 757 750 751 749 748 757 760 760 761 757 755 756 756 754 754 760 764 766 768 768 770 771 773 775 776 778 779 781 782 784 785 787 789 790 792 793 795 797 798 800 801 802 803 803 804 805 806 806 808 809 810 811 812 812 812 813 813 815 816 815 815 817 820 821 821 821 821 822 822 823 823 824 826 827 829 831 833 833 833 833 833 833
775 783 791 793 792 788 778 774 770 768 767 760 756 754 755 758 755 752 753 757 761 763 764 762 760 757 757 757 755 757 762 764 766 767 768 770 772 774 775 777 779 780 781 783 785 786 788 789 791 793 794 796 797 798 800 801 803 803 804 805 806 806 807 808 809 810 811 812 813 813 813 813 814 816 817 816 817 820 822 822 822 822 823 823 824 824 825 826 828 829 831 833 834 834 834 834 834
776 783 789 789 785 779 770 767 764 764 766 761 756 753 753 755 755 753 759 767 764 765 768 767 765 762 761 760 759 761 763 765 766 767 768 771 773 774 776 778 779 781 782 784 785 787 788 790 791 793 794 796 797 799 800 801 803 803 804 805 806 806 807 808 809 810 811 812 813 813 813 814 814 816 817 817 818 820 822 823 823 823 824 824 824 825 826 827 828 830 832 834 835 835 835 835 835
774 779 786 782 776 772 766 764 762 760 762 763 758 751 751 753 751 754 763 770 767 766 768 768 768 766 764 763 762 763 764 766 767 769 771 773 775 776 777 778 779 781 783 784 785 787 789 790 791 793 795 797 798 799 800 801 802 803 804 805 806 807 807 808 809 810 811 812 813 813 814 814 815 816 817 818 818 820 822 824 824 824 824 825 825 826 826 828 829 830 832 834 835 836 836 836 836
772 775 779 773 771 771 762 759 759 756 757 761 758 751 751 751 750 755 762 768 770 768 763 761 764 764 764 764 763 764 765 766 768 771 773 774 776 777 778 779 781 782 783 785 786 788 789 789 791 793 795 796 798 799 800 801 802 803 804 805 806 807 808 809 809 810 811 811 812 813 815 815 816 816 818 818 819 820 822 824 824 825 825 825 826 826 827 828 829 830 832 834 835 836 837 837 837
772 771 771 768 770 769 760 757 757 754 754 757 758 754 751 750 752 757 759 762 763 760 756 756 757 758 759 761 763 764 765 768 770 771 773 774 776 777 778 779 781 782 784 785 786 788 789 790 792 793 795 796 797 798 799 800 801 803 804 805 807 807 808 809 809 810 811 812 813 814 814 816 817 817 818 818 819 820 822 824 825 825 826 826 827 827 828 828 829 830 831 833 835 836 837 838 838
773 771 766 766 767 766 760 757 755 752 754 755 754 752 750 750 755 757 756 755 752 749 750 754 757 757 757 759 761 763 765 768 769 771 773 774 775 776 778 779 780 782 783 785 786 788 789 790 791 793 794 795 796 797 798 799 800 802 803 805 806 807 808 808 809 810 811 812 813 814 814 816 817 818 819 819 819 820 821 823 825 826 826 827 827 828 828 828 829 830 831 833 834 836 837 838 839
772 771 765 764 764 763 760 757 755 753 756 753 749 750 750 751 754 756 755 752 749 748 750 754 758 759 760 761 762 763 764 767 768 771 772 772 774 775 777 778 780 781 783 785 786 787 789 790 791 793 794 795 795 796 798 799 800 802 803 804 805 806 807 808 809 810 811 812 813 814 815 816 817 818 819 819 819 820 822 823 825 826 826 827 827 828 829 829 830 831 832 833 834 836 837 838 839
770 770 764 762 761 759 758 758 757 756 756 753 751 752 752 751 751 755 756 753 750 750 752 756 759 761 763 764 764 765 766 768 769 771 772 773 774 776 777 778 779 781 782 783 785 786 788 789 791 792 793 794 795 796 797 799 800 801 802 803 804 805 806 808 809 810 811 812 814 814 815 817 817 819 820 820 820 820 822 823 825 826 826 827 828 829 829 830 830 831 832 833 834 835 836 837 838
767 764 763 761 760 756 756 758 757 757 756 753 755 755 752 750 752 759 759 755 753 752 756 759 760 763 765 766 766 766 767 768 769 771 772 774 775 776 776 777 778 779 780 782 784 785 787 789 790 791 792 793 794 795 797 798 799 800 800 801 803 805 807 808 809 810 811 812 814 815 817 818 819 820 821 821 821 821 822 823 824 826 826 827 828 828 829 830 830 831 832 833 834 835 836 837 838
761 761 762 760 759 756 755 756 754 756 755 753 756 756 753 751 755 764 761 755 754 755 760 762 763 765 766 766 767 766 766 766 768 770 772 774 774 774 775 776 776 778 780 781 783 784 786 787 788 790 791 792 794 796 797 798 799 799 799 801 803 806 807 808 809 810 812 812 814 816 817 818 819 820 821 822 822 822 822 823 824 825 826 827 827 828 829 829 830 831 832 833 834 835 836 837 838
758 760 760 758 757 756 755 755 753 754 753 751 753 755 755 754 756 761 759 756 755 757 762 764 765 767 767 767 767 766 766 766 768 769 771 772 772 772 773 773 775 777 779 780 781 783 785 787 789 790 792 793 795 797 798 798 798 798 799 801 803 805 806 807 810 812 813 814 816 817 817 817 817 819 821 822 822 822 822 823 824 824 825 826 827 828 828 829 830 831 832 833 834 835 836 837 838
757 758 761 759 756 755 752 752 751 752 751 747 752 760 760 757 757 757 756 756 757 759 763 765 766 767 767 767 767 767 766 766 768 768 768 768 769 770 771 772 774 776 777 779 781 783 785 787 789 790 792 795 797 798 798 797 797 797 799 801 802 803 804 805 808 810 811 813 815 818 818 817 817 818 819 821 822 822 823 823 824 824 825 826 826 827 828 829 830 831 831 832 834 835 836 837 838
757 759 763 762 761 758 751 750 750 749 750 745 752 770 766 756 758 757 755 757 760 763 765 766 767 767 767 768 767 767 766 766 766 765 766 766 767 768 769 771 773 775 777 779 781 783 784 786 788 790 792 795 797 797 796 795 795 797 800 801 802 802 803 804 805 807 809 811 813 816 817 817 817 817 818 820 821 822 822 823 823 824 825 825 826 826 827 828 829 830 831 832 833 834 835 837 838
759 761 764 767 769 763 750 749 751 750 752 744 752 772 765 754 759 759 755 756 760 765 766 766 767 767 768 767 767 767 767 766 764 763 764 764 765 767 769 771 773 775 777 779 780 781 783 785 787 790 792 794 794 793 791 793 796 799 802 804 804 803 804 804 805 806 807 809 811 813 815 815 816 816 816 818 820 821 821 822 823 824 824 825 825 826 827 828 829 830 831 832 833 834 835 836 838
763 768 772 771 770 765 753 749 750 751 752 747 753 770 764 754 758 757 756 756 758 763 765 765 766 766 767 767 767 768 767 766 765 764 764 764 765 767 769 770 772 774 776 778 779 780 782 785 788 790 791 791 790 789 790 793 796 799 802 803 803 804 804 804 804 805 805 807 809 811 812 813 814 815 815 818 819 819 820 821 822 823 823 824 824 825 826 827 828 830 831 831 832 833 834 836 837
769 773 775 772 769 768 760 751 748 748 750 751 755 764 761 757 758 756 756 757 758 762 764 765 765 766 767 767 768 768 768 767 765 764 764 764 766 767 769 770 771 773 775 776 777 779 783 786 787 789 789 788 789 789 791 793 794 796 798 799 800 802 802 803 803 803 804 805 806 809 810 812 813 813 815 817 817 817 819 820 821 821 822 822 823 824 826 827 828 829 831 832 832 833 834 835 837
775 775 774 773 770 770 766 757 751 749 752 754 755 758 758 759 761 758 757 757 759 761 763 764 765 766 767 767 769 770 769 767 764 763 763 764 766 767 769 770 771 773 774 776 777 780 783 785 786 787 787 788 789 791 792 793 793 794 796 797 798 799 800 800 801 802 803 803 804 806 808 809 810 812 815 816 816 816 818 819 819 820 820 821 822 824 825 827 828 829 830 831 832 833 833 835 837
776 775 773 774 771 769 769 763 753 751 754 755 758 759 756 758 761 760 758 756 759 761 762 764 764 765 767 768 769 770 769 767 764 762 762 764 765 767 769 770 772 773 774 775 777 780 782 784 785 785 786 787 789 790 791 793 794 795 796 797 797 797 798 799 800 801 801 802 802 804 805 806 808 811 815 816 815 816 816 817 818 819 819 820 822 824 825 826 827 829 830 831 832 833 833 834 836
772 774 774 776 774 772 769 763 753 750 756 757 760 759 753 755 759 759 758 757 761 764 764 765 765 766 767 768 769 769 769 766 763 762 762 764 765 767 769 770 772 772 774 775 777 779 780 782 783 784 785 786 788 789 791 793 794 795 796 797 796 796 797 799 800 800 801 801 802 803 804 806 807 811 815 815 814 815 815 816 817 818 818 819 821 823 824 825 827 828 829 830 831 832 834 835 836
769 772 774 775 777 774 765 760 753 750 758 757 756 758 753 754 756 756 758 759 762 764 766 768 767 769 769 769 769 768 768 766 763 762 763 765 766 768 770 770 771 773 774 776 777 778 779 781 781 782 783 784 786 787 789 791 792 793 794 794 794 794 796 798 799 800 801 802 803 804 805 807 809 812 816 816 814 815 815 816 817 817 818 819 820 821 823 825 826 828 829 830 830 832 834 835 836
769 772 775 776 778 773 762 759 754 751 759 757 755 759 756 755 757 757 759 760 761 762 764 767 768 770 770 769 769 769 767 765 763 763 764 766 767 769 771 773 774 776 778 779 779 779 780 781 781 781 782 783 784 786 787 789 790 791 791 792 793 794 795 797 799 800 801 803 803 804 806 809 810 813 815 815 815 814 814 815 816 817 818 819 820 821 823 824 826 827 828 829 830 832 833 834 836
771 774 778 778 776 771 763 758 753 752 758 757 758 761 756 757 759 758 759 760 758 757 758 760 763 767 769 769 769 768 767 765 764 764 765 766 768 772 776 779 780 782 783 784 784 784 784 783 783 782 783 784 784 786 787 788 789 790 791 792 792 793 795 797 799 800 801 801 802 803 805 808 810 812 812 813 814 815 814 814 816 817 818 818 819 820 822 824 825 826 827 828 829 831 833 834 835
773 775 779 779 774 774 771 760 753 754 757 756 757 760 757 758 762 760 761 761 759 758 759 760 761 763 764 763 763 763 764 764 763 763 766 769 774 777 780 782 783 784 784 785 786 787 788 787 787 786 786 786 786 787 788 789 790 790 791 791 792 794 795 797 799 800 800 800 801 803 804 806 809 810 810 810 812 814 814 814 815 816 817 818 819 820 821 823 824 825 826 827 827 829 832 834 836
774 773 776 776 770 772 771 763 756 754 757 756 757 765 764 759 763 765 765 763 760 760 762 763 764 763 763 763 762 763 762 762 763 766 770 775 778 779 780 780 781 782 782 783 784 786 787 788 789 789 790 789 789 790 790 791 790 790 791 792 793 794 795 797 798 799 800 800 801 802 803 805 806 807 809 809 810 813 814 814 815 816 817 818 819 819 821 822 823 824 825 826 826 828 830 833 835
774 769 769 769 766 767 769 766 762 761 764 761 761 777 779 764 763 772 775 770 765 764 765 767 766 764 765 766 767 767 767 767 768 771 773 776 778 778 778 779 780 781 781 781 781 782 784 785 786 788 790 792 793 793 793 794 793 792 791 791 792 793 795 797 798 799 800 800 799 800 802 803 805 806 808 809 810 812 813 814 815 816 817 818 818 819 821 822 823 824 824 825 826 827 828 831 833
776 765 759 761 763 766 767 764 764 768 772 767 764 777 782 770 766 775 781 780 774 771 771 771 769 766 766 768 770 771 772 772 772 773 774 777 779 779 779 781 783 783 782 781 781 781 781 782 782 783 787 790 793 796 797 796 796 795 792 791 792 793 794 794 795 796 798 798 799 800 801 803 805 805 807 808 808 810 813 814 815 816 816 817 818 819 820 821 822 823 824 825 826 827 828 829 832
772 757 752 760 762 765 764 760 764 769 768 767 765 768 776 778 775 778 783 783 782 782 780 777 772 769 769 771 773 774 775 775 774 775 776 778 779 779 780 782 784 784 784 784 783 782 782 782 782 783 785 787 790 795 799 800 798 796 794 794 793 793 792 792 792 794 795 797 798 799 800 802 803 804 805 806 807 810 812 813 814 815 815 816 817 818 820 821 822 823 824 825 826 827 828 829 830
760 748 751 757 757 760 759 758 767 771 770 772 771 768 778 787 784 784 784 781 786 792 788 783 777 771 771 772 773 774 775 776 776 777 778 778 779 780 781 783 784 786 786 785 785 784 784 784 785 786 787 788 789 791 795 799 798 796 796 796 794 792 791 791 792 794 795 796 797 798 800 801 802 803 804 805 807 810 812 813 814 814 814 815 816 818 819 820 821 822 823 825 826 827 829 830 830
749 746 753 756 757 761 760 762 767 771 777 780 776 772 782 795 796 795 791 787 793 796 790 786 781 776 774 775 776 776 776 777 777 778 778 779 780 780 782 783 784 785 786 786 785 785 784 784 784 786 788 789 790 790 790 792 794 795 795 795 795 793 792 791 792 794 795 797 798 798 800 801 801 802 803 805 807 809 811 813 813 813 813 814 815 817 818 819 821 822 823 824 825 827 828 830 831
744 747 755 759 763 763 764 770 768 775 786 780 774 775 780 795 805 803 800 797 797 796 792 788 784 781 780 779 779 779 779 779 779 779 779 780 780 780 781 782 783 784 785 785 785 784 784 783 783 784 786 787 788 789 787 786 789 791 791 792 794 793 792 792 793 794 795 797 798 798 800 800 800 802 803 804 806 807 810 812 812 812 813 813 815 815 817 819 820 821 823 824 825 826 828 829 830
746 751 756 762 770 769 772 777 775 787 794 779 775 780 782 797 808 805 802 799 796 794 793 791 788 786 785 783 783 782 782 781 780 780 780 780 780 780 780 780 781 782 783 784 784 784 784 784 784 784 786 788 788 789 786 783 786 788 788 789 790 790 791 792 793 793 794 795 797 797 798 799 799 801 802 803 805 806 808 810 810 811 812 813 814 815 816 818 819 821 822 823 824 826 827 828 830
752 755 759 769 780 782 785 790 789 792 790 782 783 784 789 805 810 805 804 799 796 796 795 793 791 790 788 787 786 785 784 783 782 782 782 782 782 781 781 781 781 782 782 784 784 782 782 783 783 785 786 787 788 787 784 782 784 784 783 784 786 787 789 791 792 792 792 793 794 795 796 797 798 799 801 803 804 806 807 809 809 810 811 813 813 814 816 817 818 820 821 823 824 825 826 828 829
754 754 757 770 784 792 798 805 804 796 787 786 786 784 797 812 808 805 805 800 797 797 796 795 793 792 791 790 789 788 787 786 785 785 784 785 784 783 783 783 782 783 783 784 784 782 782 782 783 784 784 784 783 780 777 777 778 778 778 780 783 785 787 789 791 792 792 792 792 793 794 795 796 798 800 802 804 805 807 808 809 810 811 812 813 814 815 817 818 819 821 822 823 825 826 827 828
752 750 751 760 771 781 791 796 794 790 786 786 784 788 803 809 806 805 804 801 799 796 797 797 794 794 792 792 792 791 790 789 788 788 787 787 786 785 785 784 783 784 784 784 783 782 782 782 782 781 780 779 777 774 773 772 771 772 775 777 780 782 784 787 789 790 791 791 791 792 792 793 795 798 800 803 804 805 806 808 809 810 811 812 813 814 815 816 818 819 821 822 823 824 826 827 828
755 753 752 757 756 761 779 789 786 783 785 790 794 801 808 806 804 804 802 802 800 796 799 799 797 797 794 794 795 793 793 792 790 790 789 787 787 786 786 785 784 785 784 783 782 782 783 782 782 779 776 775 773 770 770 770 769 769 772 774 776 779 781 784 786 788 790 790 791 792 793 793 795 797 800 802 804 805 806 808 808 810 811 812 813 814 815 816 818 819 820 822 823 824 825 827 828
754 755 752 753 749 750 771 790 792 785 783 795 806 808 810 809 806 804 802 803 801 799 802 802 800 798 797 796 796 795 794 793 791 790 789 788 787 787 787 786 786 785 784 784 783 783 783 782 782 780 777 774 771 770 769 769 769 769 770 771 773 775 778 781 784 787 788 789 791 792 793 794 795 797 800 802 804 805 807 808 808 810 811 812 813 814 815 817 818 819 820 821 822 824 825 826 828
747 753 746 748 753 753 762 778 790 789 787 799 808 807 808 811 809 806 804 804 804 804 804 803 802 800 798 798 796 795 794 793 792 791 789 789 788 788 788 787 786 785 785 784 784 783 783 783 782 781 779 776 773 771 770 769 768 768 768 769 771 773 775 779 783 786 787 788 789 791 792 794 795 797 799 801 803 805 806 808 809 810 811 812 813 814 815 817 818 819 820 821 822 823 825 826 827
733 737 736 745 759 764 766 774 784 791 795 801 808 810 809 808 809 806 804 805 806 806 805 804 804 802 800 799 797 796 795 794 793 792 792 792 791 791 790 788 788 787 786 785 784 784 783 783 782 781 780 778 776 775 774 772 770 770 769 769 771 772 774 778 782 785 787 788 789 790 792 794 795 797 799 800 803 804 806 808 809 810 811 812 813 814 815 817 818 819 820 821 822 823 825 826 827
730 735 739 745 753 759 764 770 775 782 794 802 807 811 808 805 806 803 802 806 806 806 807 806 805 804 802 801 800 800 799 798 797 796 796 795 794 794 792 791 790 788 787 786 784 783 782 782 782 781 780 778 778 778 776 775 774 773 773 772 773 773 775 778 781 784 786 787 788 790 791 793 795 797 799 801 802 804 806 807 809 810 811 812 813 814 816 817 818 819 820 821 822 823 824 825 826
737 742 747 749 751 755 760 768 773 773 782 797 804 807 807 804 802 800 801 805 806 806 807 806 806 805 804 804 804 803 802 802 801 800 799 798 797 796 794 793 792 789 788 785 783 782 782 782 781 780 780 779 778 779 778 776 775 775 776 775 775 775 776 779 781 783 785 787 788 790 791 793 795 797 799 802 804 805 806 808 809 811 812 813 814 815 816 818 818 819 820 821 822 823 824 825 826
738 742 747 750 751 756 763 774 777 769 775 790 794 796 805 806 800 798 800 803 804 805 806 807 808 807 807 807 806 806 806 805 804 803 802 800 799 797 796 794 793 790 788 785 783 783 783 782 782 781 780 779 778 778 777 776 775 776 776 776 776 777 778 779 781 783 785 786 788 790 791 792 794 795 798 803 805 805 807 809 810 811 813 814 815 816 817 818 819 820 820 821 822 823 824 825 826